Tracking 26240 objects as of 6-Oct-2022
HD Live streaming from Space Station
objects crossing your sky now

STARLINK-3332

Track STARLINK-3332 now!
10-day predictions
STARLINK-3332 is classified as:


NORAD ID: 50825
Int'l Code: 2022-001Y
Perigee: 545.5 km
Apogee: 548.3 km
Inclination: 53.2 °
Period: 95.4 minutes
Semi major axis: 6917 km
RCS: Unknown
Launch date: January 6, 2022
Source: United States (US)
Launch site: AIR FORCE EASTERN TEST RANGE (AFETR)
aabbcc
Your satellite tracking list
Your tracking list is empty




NASA's NSSDC Master Catalog

Two Line Element Set (TLE):
1 50825U 22001Y   22278.60439206 -.00003267  00000-0 -18727-3 0  9994
2 50825  53.2169  25.4681 0002043  41.8721 318.2427 15.08837825 42804
Source of the keplerian elements: AFSPC